sat.trackr.live / text

‹ back to catalog

STARLINK-32287

NORAD 60358 · 2024-138D

PAYLOAD ACTIVE UNKNOWN

§ Identity

Operator
Country
US
Launch date
2024-08-04
Launch site
AFWTR
Launch vehicle
Mass (kg)
RCS (m²)

Purposes: comms

External: N2YO · Heavens-Above · Gunter

§ Orbital elements

Epoch: 2026-05-25T04:12:55.298592Z

Period
94.11 min
Inclination
53.1612°
Eccentricity
0.0001250
Mean motion
15.30193795 rev/d
Perigee alt
474.4 km
Apogee alt
476.1 km
Semi-major
6,853.4 km
B*
1.4273e-4
RAAN
314.6449°
Arg perigee
93.0197°
Mean anomaly
267.0947°
Rev number
10,233

§ Raw data

STARLINK-322871 60358U 24138D   26145.17564003  .00003869  00000+0  14273-3 0  99992 60358  53.1612 314.6449 0001250  93.0197 267.0947 15.30193795102337

JSON: /api/v1/satellites/60358 · /tle

For live sub-satellite position, see the globe view (requires WebGL).

§ Visibility from observer

Set your observer location to see the next 7 days of passes ≥ 10°. The values pass through the URL so the page stays shareable.

No JS? Fill the form by hand. The geolocation button needs JavaScript.